| time (UTC) | temp F | wind direction | speed MPH | gust MPH | rain 1hr in | rain 24hr in | rain mn in | humidity % | barometer mb |
| 20260901063219 | 62 | 213 | 2.0 | 5.0 | 0.00 | 0.00 | 0.00 | 79 | 1021.3 |
| 20260901062718 | 62 | 199 | 1.0 | 5.0 | 0.00 | 0.00 | 0.00 | 80 | 1021.2 |
| 20260901062215 | 62 | 195 | 1.0 | 5.0 | 0.00 | 0.00 | 0.00 | 80 | 1021.2 |
| 20260901061719 | 62 | 206 | 2.0 | 4.0 | 0.00 | 0.00 | 0.00 | 80 | 1021.1 |
| 20260901061218 | 61 | 177 | 2.0 | 4.0 | 0.00 | 0.00 | 0.00 | 81 | 1021.2 |
| 20260901060707 | 61 | 220 | 2.0 | 4.0 | 0.00 | 0.00 | 0.00 | 81 | 1021.2 |
| 20260901060205 | 61 | 194 | 2.0 | 4.0 | 0.00 | 0.00 | 0.00 | 81 | 1021.2 |
| 20260901055712 | 61 | 194 | 2.0 | 3.0 | 0.00 | 0.00 | 0.00 | 82 | 1021.1 |
| 20260901055205 | 61 | 222 | 2.0 | 3.0 | 0.00 | 0.00 | 0.00 | 82 | 1021.1 |
| 20260901054707 | 60 | 243 | 2.0 | 3.0 | 0.00 | 0.00 | 0.00 | 82 | 1021.0 |
| 20260901054215 | 60 | 219 | 2.0 | 3.0 | 0.00 | 0.00 | 0.00 | 82 | 1021.0 |
| 20260901053717 | 60 | 241 | 1.0 | 3.0 | 0.00 | 0.00 | 0.00 | 82 | 1021.0 |
| 20260901053207 | 60 | 275 | 1.0 | 3.0 | 0.00 | 0.00 | 0.00 | 82 | 1021.0 |
| 20260901052708 | 60 | 261 | 2.0 | 3.0 | 0.00 | 0.00 | 0.00 | 82 | 1021.0 |
| 20260901052218 | 60 | 248 | 0.0 | 3.0 | 0.00 | 0.00 | 0.00 | 82 | 1021.0 |
| 20260901051706 | 60 | 240 | 2.0 | 3.0 | 0.00 | 0.00 | 0.00 | 82 | 1021.1 |
| 20260901051211 | 60 | 258 | 2.0 | 3.0 | 0.00 | 0.00 | 0.00 | 83 | 1021.0 |
| 20260901050707 | 60 | 250 | 1.0 | 3.0 | 0.00 | 0.00 | 0.00 | 83 | 1021.0 |
| 20260901050208 | 60 | 258 | 2.0 | 3.0 | 0.00 | 0.00 | 0.00 | 83 | 1021.0 |
| 20260901045715 | 60 | 264 | 2.0 | 3.0 | 0.00 | 0.00 | 0.00 | 83 | 1021.1 |
| 20260901045211 | 60 | 260 | 2.0 | 3.0 | 0.00 | 0.00 | 0.00 | 83 | 1021.1 |
| 20260901044710 | 60 | 250 | 2.0 | 4.0 | 0.00 | 0.00 | 0.00 | 83 | 1021.2 |
| 20260901044204 | 60 | 250 | 2.0 | 4.0 | 0.00 | 0.00 | 0.00 | 83 | 1021.1 |
| 20260901043719 | 60 | 261 | 2.0 | 4.0 | 0.00 | 0.00 | 0.00 | 83 | 1021.1 |
| 20260901043219 | 60 | 229 | 2.0 | 3.0 | 0.00 | 0.00 | 0.00 | 82 | 1021.2 |
| 20260901042714 | 60 | 254 | 2.0 | 4.0 | 0.00 | 0.00 | 0.00 | 82 | 1021.2 |
| 20260901042209 | 60 | 222 | 1.0 | 4.0 | 0.00 | 0.00 | 0.00 | 82 | 1021.1 |
| 20260901041715 | 60 | 212 | 2.0 | 4.0 | 0.00 | 0.00 | 0.00 | 82 | 1021.0 |
| 20260901040207 | 60 | 213 | 2.0 | 4.0 | 0.00 | 0.00 | 0.00 | 82 | 1021.1 |
| 20260901035716 | 60 | 247 | 2.0 | 4.0 | 0.00 | 0.00 | 0.00 | 82 | 1021.0 |
| 20260901035205 | 60 | 226 | 2.0 | 4.0 | 0.00 | 0.00 | 0.00 | 82 | 1021.0 |
| 20260901034711 | 60 | 222 | 2.0 | 4.0 | 0.00 | 0.00 | 0.00 | 82 | 1021.1 |
| 20260901033729 | 60 | 233 | 2.0 | 4.0 | 0.00 | 0.00 | 0.00 | 82 | 1021.1 |
| 20260901033206 | 60 | 247 | 3.0 | 4.0 | 0.00 | 0.00 | 0.00 | 82 | 1021.2 |
| 20260901032716 | 60 | 230 | 2.0 | 4.0 | 0.00 | 0.00 | 0.00 | 82 | 1021.3 |
| 20260901032214 | 61 | 225 | 2.0 | 4.0 | 0.00 | 0.00 | 0.00 | 81 | 1021.3 |
| 20260901031710 | 61 | 219 | 2.0 | 3.0 | 0.00 | 0.00 | 0.00 | 81 | 1021.3 |
| 20260901031219 | 61 | 255 | 2.0 | 2.0 | 0.00 | 0.00 | 0.00 | 81 | 1021.2 |
| 20260901030711 | 61 | 233 | 2.0 | 2.0 | 0.00 | 0.00 | 0.00 | 81 | 1021.3 |
| 20260901030214 | 61 | 225 | 1.0 | 2.0 | 0.00 | 0.00 | 0.00 | 80 | 1021.4 |
| 20260901025707 | 61 | 237 | 1.0 | 1.0 | 0.00 | 0.00 | 0.00 | 80 | 1021.4 |
| 20260901025207 | 61 | 225 | 0.0 | 1.0 | 0.00 | 0.00 | 0.00 | 80 | 1021.4 |
| 20260901024712 | 61 | 233 | 0.0 | 0.0 | 0.00 | 0.00 | 0.00 | 80 | 1021.4 |
| 20260901024207 | 61 | 0 | 0.0 | 0.0 | 0.00 | 0.00 | 0.00 | 80 | 1021.4 |
| 20260901023716 | 62 | 0 | 0.0 | 2.0 | 0.00 | 0.00 | 0.00 | 80 | 1021.4 |
| 20260901023215 | 62 | 0 | 0.0 | 2.0 | 0.00 | 0.00 | 0.00 | 80 | 1021.4 |
| 20260901022706 | 62 | 0 | 0.0 | 2.0 | 0.00 | 0.00 | 0.00 | 80 | 1021.4 |
| 20260901022205 | 62 | 240 | 0.0 | 1.0 | 0.00 | 0.00 | 0.00 | 80 | 1021.4 |
| 20260901021713 | 62 | 0 | 0.0 | 1.0 | 0.00 | 0.00 | 0.00 | 80 | 1021.6 |
| 20260901021217 | 62 | 217 | 0.0 | 0.0 | 0.00 | 0.00 | 0.00 | 80 | 1021.5 |
| 20260901020731 | 62 | 0 | 0.0 | 0.0 | 0.00 | 0.00 | 0.00 | 79 | 1021.5 |
| 20260901020215 | 62 | 0 | 0.0 | 1.0 | 0.00 | 0.00 | 0.00 | 79 | 1021.4 |
| 20260901015210 | 62 | 0 | 0.0 | 1.0 | 0.00 | 0.00 | 0.00 | 79 | 1021.3 |
| 20260901014706 | 62 | 236 | 0.0 | 0.0 | 0.00 | 0.00 | 0.00 | 79 | 1021.4 |
| 20260901014209 | 62 | 0 | 0.0 | 0.0 | 0.00 | 0.00 | 0.00 | 79 | 1021.5 |
| 20260901013207 | 62 | 0 | 0.0 | 1.0 | 0.00 | 0.00 | 0.00 | 79 | 1021.4 |
| 20260901012705 | 62 | 0 | 0.0 | 1.0 | 0.00 | 0.00 | 0.00 | 79 | 1021.4 |
| 20260901012218 | 62 | 254 | 0.0 | 1.0 | 0.00 | 0.00 | 0.00 | 79 | 1021.3 |
| 20260901011718 | 62 | 196 | 0.0 | 0.0 | 0.00 | 0.00 | 0.00 | 79 | 1021.4 |
| 20260901011215 | 62 | 0 | 0.0 | 0.0 | 0.00 | 0.00 | 0.00 | 79 | 1021.5 |
| 20260901010716 | 62 | 0 | 0.0 | 0.0 | 0.00 | 0.00 | 0.00 | 79 | 1021.5 |
| 20260901010210 | 62 | 0 | 0.0 | 0.0 | 0.00 | 0.00 | 0.00 | 79 | 1021.6 |
| 20260901005716 | 62 | 0 | 0.0 | 0.0 | 0.00 | 0.00 | 0.00 | 79 | 1021.6 |
| 20260901005209 | 62 | 0 | 0.0 | 0.0 | 0.00 | 0.00 | 0.00 | 79 | 1021.6 |
| 20260901004709 | 62 | 0 | 0.0 | 0.0 | 0.00 | 0.00 | 0.00 | 79 | 1021.7 |
| 20260901004210 | 62 | 0 | 0.0 | 0.0 | 0.00 | 0.00 | 0.00 | 79 | 1021.8 |
| 20260901003719 | 62 | 0 | 0.0 | 0.0 | 0.00 | 0.00 | 0.00 | 79 | 1021.9 |
| 20260901003215 | 62 | 0 | 0.0 | 0.0 | 0.00 | 0.00 | 0.00 | 79 | 1022.0 |
| 20260901002714 | 62 | 0 | 0.0 | 0.0 | 0.00 | 0.00 | 0.00 | 79 | 1022.1 |
| 20260901001714 | 63 | 0 | 0.0 | 0.0 | 0.00 | 0.00 | 0.00 | 78 | 1022.1 |
| 20260901001214 | 63 | 0 | 0.0 | 0.0 | 0.00 | 0.00 | 0.00 | 78 | 1022.1 |
| 20260901000717 | 63 | 0 | 0.0 | 0.0 | 0.00 | 0.00 | 0.00 | 78 | 1022.2 |
| 20260901000219 | 63 | 0 | 0.0 | 0.0 | 0.00 | 0.00 | 0.00 | 78 | 1022.1 |
| 20260831235710 | 63 | 0 | 0.0 | 0.0 | 0.00 | 0.00 | 0.00 | 78 | 1022.2 |
| 20260831235212 | 64 | 0 | 0.0 | 0.0 | 0.00 | 0.00 | 0.00 | 78 | 1022.2 |
| 20260831234706 | 64 | 0 | 0.0 | 0.0 | 0.00 | 0.00 | 0.00 | 78 | 1022.3 |
| 20260831234212 | 64 | 0 | 0.0 | 0.0 | 0.00 | 0.00 | 0.00 | 77 | 1022.2 |
| 20260831233707 | 64 | 0 | 0.0 | 0.0 | 0.00 | 0.00 | 0.00 | 77 | 1022.2 |
| 20260831233214 | 64 | 0 | 0.0 | 0.0 | 0.00 | 0.00 | 0.00 | 77 | 1022.2 |
| 20260831232715 | 64 | 0 | 0.0 | 0.0 | 0.00 | 0.00 | 0.00 | 77 | 1022.3 |
| 20260831232211 | 64 | 0 | 0.0 | 0.0 | 0.00 | 0.00 | 0.00 | 77 | 1022.3 |
| 20260831231712 | 64 | 0 | 0.0 | 0.0 | 0.00 | 0.00 | 0.00 | 77 | 1022.3 |
| 20260831230240 | 64 | 0 | 0.0 | 0.0 | 0.00 | 0.00 | 0.00 | 77 | 1022.4 |
| 20260831225719 | 64 | 0 | 0.0 | 0.0 | 0.00 | 0.00 | 0.00 | 77 | 1022.3 |
| 20260831225217 | 64 | 0 | 0.0 | 0.0 | 0.00 | 0.00 | 0.00 | 77 | 1022.4 |
| 20260831224717 | 64 | 0 | 0.0 | 1.0 | 0.00 | 0.00 | 0.00 | 77 | 1022.4 |
| 20260831223716 | 65 | 0 | 0.0 | 1.0 | 0.00 | 0.00 | 0.00 | 76 | 1022.4 |
| 20260831223213 | 65 | 225 | 0.0 | 0.0 | 0.00 | 0.00 | 0.00 | 76 | 1022.5 |
| 20260831222714 | 65 | 0 | 0.0 | 0.0 | 0.00 | 0.00 | 0.00 | 76 | 1022.4 |
| 20260831222214 | 65 | 0 | 0.0 | 0.0 | 0.00 | 0.00 | 0.00 | 75 | 1022.4 |
| 20260831221711 | 65 | 0 | 0.0 | 0.0 | 0.00 | 0.00 | 0.00 | 75 | 1022.3 |
| 20260831221206 | 65 | 0 | 0.0 | 0.0 | 0.00 | 0.00 | 0.00 | 76 | 1022.3 |
| 20260831220706 | 65 | 0 | 0.0 | 0.0 | 0.00 | 0.00 | 0.00 | 75 | 1022.3 |
| 20260831220207 | 65 | 0 | 0.0 | 0.0 | 0.00 | 0.00 | 0.00 | 75 | 1022.4 |
| 20260831215208 | 66 | 0 | 0.0 | 0.0 | 0.00 | 0.00 | 0.00 | 75 | 1022.3 |
| 20260831214708 | 66 | 0 | 0.0 | 0.0 | 0.00 | 0.00 | 0.00 | 74 | 1022.2 |
| 20260831213716 | 66 | 0 | 0.0 | 0.0 | 0.00 | 0.00 | 0.00 | 75 | 1022.2 |
| 20260831213215 | 66 | 0 | 0.0 | 0.0 | 0.00 | 0.00 | 0.00 | 74 | 1022.1 |
| 20260831212712 | 66 | 0 | 0.0 | 0.0 | 0.00 | 0.00 | 0.00 | 74 | 1022.2 |
| 20260831212217 | 67 | 0 | 0.0 | 0.0 | 0.00 | 0.00 | 0.00 | 73 | 1022.2 |
| 20260831211712 | 67 | 0 | 0.0 | 0.0 | 0.00 | 0.00 | 0.00 | 73 | 1022.2 |
| 20260831211214 | 67 | 0 | 0.0 | 0.0 | 0.00 | 0.00 | 0.00 | 73 | 1022.1 |
| 20260831210217 | 67 | 0 | 0.0 | 0.0 | 0.00 | 0.00 | 0.00 | 72 | 1022.1 |
| 20260831205706 | 68 | 0 | 0.0 | 0.0 | 0.00 | 0.00 | 0.00 | 72 | 1022.2 |
| 20260831205210 | 68 | 0 | 0.0 | 0.0 | 0.00 | 0.00 | 0.00 | 71 | 1022.2 |
| 20260831204715 | 68 | 0 | 0.0 | 0.0 | 0.00 | 0.00 | 0.00 | 71 | 1022.2 |
| 20260831204218 | 68 | 0 | 0.0 | 0.0 | 0.00 | 0.00 | 0.00 | 71 | 1022.1 |
| 20260831203708 | 69 | 0 | 0.0 | 0.0 | 0.00 | 0.00 | 0.00 | 70 | 1022.0 |
| 20260831203216 | 69 | 0 | 0.0 | 0.0 | 0.00 | 0.00 | 0.00 | 70 | 1022.1 |
| 20260831202205 | 69 | 0 | 0.0 | 0.0 | 0.00 | 0.00 | 0.00 | 69 | 1022.0 |
| 20260831201717 | 70 | 0 | 0.0 | 0.0 | 0.00 | 0.00 | 0.00 | 68 | 1021.8 |
| 20260831201218 | 70 | 0 | 0.0 | 0.0 | 0.00 | 0.00 | 0.00 | 68 | 1021.8 |
| 20260831200204 | 71 | 0 | 0.0 | 0.0 | 0.00 | 0.00 | 0.00 | 67 | 1021.8 |
| 20260831195714 | 71 | 0 | 0.0 | 0.0 | 0.00 | 0.00 | 0.00 | 67 | 1021.7 |
| 20260831195218 | 71 | 0 | 0.0 | 2.0 | 0.00 | 0.00 | 0.00 | 66 | 1021.6 |
| 20260831194717 | 72 | 0 | 0.0 | 2.0 | 0.00 | 0.00 | 0.00 | 65 | 1021.7 |
| 20260831194208 | 72 | 0 | 0.0 | 2.0 | 0.00 | 0.00 | 0.00 | 65 | 1021.6 |
| 20260831193706 | 72 | 171 | 0.0 | 2.0 | 0.00 | 0.00 | 0.00 | 65 | 1021.6 |
| 20260831192714 | 72 | 209 | 0.0 | 4.0 | 0.00 | 0.00 | 0.00 | 64 | 1021.5 |
| 20260831192216 | 73 | 212 | 1.0 | 4.0 | 0.00 | 0.00 | 0.00 | 64 | 1021.4 |
| 20260831191206 | 73 | 194 | 1.0 | 6.0 | 0.00 | 0.00 | 0.00 | 63 | 1021.3 |
| 20260831190712 | 73 | 219 | 1.0 | 7.0 | 0.00 | 0.00 | 0.00 | 63 | 1021.3 |
| 20260831190212 | 74 | 209 | 2.0 | 7.0 | 0.00 | 0.00 | 0.00 | 62 | 1021.2 |
| 20260831185713 | 74 | 217 | 2.0 | 7.0 | 0.00 | 0.00 | 0.00 | 62 | 1021.2 |
| 20260831185213 | 74 | 216 | 3.0 | 6.0 | 0.00 | 0.00 | 0.00 | 62 | 1021.1 |
| 20260831184712 | 74 | 230 | 2.0 | 6.0 | 0.00 | 0.00 | 0.00 | 61 | 1021.1 |
| 20260831184207 | 74 | 222 | 2.0 | 10.0 | 0.00 | 0.00 | 0.00 | 61 | 1021.1 |
| 20260831183707 | 75 | 226 | 2.0 | 10.0 | 0.00 | 0.00 | 0.00 | 60 | 1021.0 |
| 20260831183209 | 75 | 233 | 2.0 | 10.0 | 0.00 | 0.00 | 0.00 | 60 | 1021.0 |
| 20260831182707 | 75 | 268 | 4.0 | 10.0 | 0.00 | 0.00 | 0.00 | 59 | 1021.0 |
| 20260831182204 | 76 | 271 | 5.0 | 10.0 | 0.00 | 0.00 | 0.00 | 58 | 1021.0 |
| 20260831181706 | 76 | 264 | 5.0 | 11.0 | 0.00 | 0.00 | 0.00 | 57 | 1021.0 |
| 20260831181246 | 76 | 267 | 3.0 | 11.0 | 0.00 | 0.00 | 0.00 | 56 | 1021.0 |
| 20260831180208 | 77 | 254 | 5.0 | 11.0 | 0.00 | 0.00 | 0.00 | 55 | 1021.0 |
| 20260831175709 | 77 | 240 | 4.0 | 10.0 | 0.00 | 0.00 | 0.00 | 55 | 1021.1 |
| 20260831175219 | 77 | 285 | 2.0 | 10.0 | 0.00 | 0.00 | 0.00 | 54 | 1021.0 |
| 20260831174709 | 77 | 258 | 4.0 | 11.0 | 0.00 | 0.00 | 0.00 | 52 | 1020.9 |
| 20260831174212 | 78 | 253 | 4.0 | 13.0 | 0.00 | 0.00 | 0.00 | 51 | 1021.0 |
| 20260831173717 | 78 | 271 | 3.0 | 13.0 | 0.00 | 0.00 | 0.00 | 52 | 1021.0 |
| 20260831171718 | 78 | 239 | 4.0 | 15.0 | 0.00 | 0.00 | 0.00 | 52 | 1020.9 |
| 20260831171208 | 78 | 258 | 7.0 | 13.0 | 0.00 | 0.00 | 0.00 | 53 | 1021.0 |
| 20260831170215 | 78 | 264 | 5.0 | 12.0 | 0.00 | 0.00 | 0.00 | 52 | 1020.9 |
| 20260831165706 | 78 | 234 | 6.0 | 15.0 | 0.00 | 0.00 | 0.00 | 52 | 1020.9 |
| 20260831165215 | 78 | 236 | 4.0 | 15.0 | 0.00 | 0.00 | 0.00 | 52 | 1020.9 |
| 20260831164709 | 79 | 264 | 5.0 | 15.0 | 0.00 | 0.00 | 0.00 | 52 | 1020.9 |
| 20260831164208 | 78 | 223 | 5.0 | 13.0 | 0.00 | 0.00 | 0.00 | 52 | 1020.9 |
| 20260831163206 | 79 | 281 | 6.0 | 13.0 | 0.00 | 0.00 | 0.00 | 52 | 1021.0 |
| 20260831162716 | 79 | 261 | 3.0 | 13.0 | 0.00 | 0.00 | 0.00 | 52 | 1021.0 |
| 20260831162210 | 79 | 247 | 5.0 | 14.0 | 0.00 | 0.00 | 0.00 | 53 | 1021.0 |
| 20260831161719 | 78 | 291 | 5.0 | 14.0 | 0.00 | 0.00 | 0.00 | 53 | 1021.1 |
| 20260831161209 | 79 | 272 | 5.0 | 14.0 | 0.00 | 0.00 | 0.00 | 52 | 1021.1 |
| 20260831160709 | 79 | 247 | 6.0 | 14.0 | 0.00 | 0.00 | 0.00 | 51 | 1021.1 |
| 20260831160239 | 78 | 257 | 7.0 | 11.0 | 0.00 | 0.00 | 0.00 | 52 | 1021.3 |
| 20260831155713 | 78 | 296 | 5.0 | 11.0 | 0.00 | 0.00 | 0.00 | 52 | 1021.2 |
| 20260831155209 | 79 | 234 | 5.0 | 14.0 | 0.00 | 0.00 | 0.00 | 52 | 1021.1 |
| 20260831154715 | 79 | 285 | 4.0 | 14.0 | 0.00 | 0.00 | 0.00 | 52 | 1021.2 |
| 20260831154207 | 78 | 281 | 5.0 | 14.0 | 0.00 | 0.00 | 0.00 | 53 | 1021.2 |
| 20260831153715 | 78 | 258 | 8.0 | 12.0 | 0.00 | 0.00 | 0.00 | 54 | 1021.2 |
| 20260831153219 | 78 | 250 | 5.0 | 13.0 | 0.00 | 0.00 | 0.00 | 52 | 1021.3 |
| 20260831152710 | 79 | 303 | 3.0 | 15.0 | 0.00 | 0.00 | 0.00 | 52 | 1021.4 |
| 20260831152214 | 79 | 285 | 6.0 | 15.0 | 0.00 | 0.00 | 0.00 | 53 | 1021.4 |
| 20260831151706 | 78 | 229 | 7.0 | 15.0 | 0.00 | 0.00 | 0.00 | 55 | 1021.5 |
| 20260831151213 | 78 | 232 | 5.0 | 14.0 | 0.00 | 0.00 | 0.00 | 55 | 1021.5 |
| 20260831150715 | 78 | 278 | 5.0 | 14.0 | 0.00 | 0.00 | 0.00 | 54 | 1021.6 |
| 20260831150206 | 78 | 246 | 6.0 | 13.0 | 0.00 | 0.00 | 0.00 | 55 | 1021.6 |
| 20260831145713 | 77 | 271 | 8.0 | 13.0 | 0.00 | 0.00 | 0.00 | 56 | 1021.6 |
| 20260831144708 | 77 | 284 | 6.0 | 16.0 | 0.00 | 0.00 | 0.00 | 56 | 1021.6 |
| 20260831144213 | 77 | 285 | 6.0 | 16.0 | 0.00 | 0.00 | 0.00 | 56 | 1021.8 |
| 20260831143705 | 77 | 251 | 9.0 | 11.0 | 0.00 | 0.00 | 0.00 | 55 | 1021.7 |
| 20260831142710 | 77 | 291 | 5.0 | 11.0 | 0.00 | 0.00 | 0.00 | 56 | 1021.8 |
| 20260831142239 | 76 | 274 | 6.0 | 13.0 | 0.00 | 0.00 | 0.00 | 57 | 1021.9 |
| 20260831141713 | 76 | 267 | 6.0 | 13.0 | 0.00 | 0.00 | 0.00 | 57 | 1021.8 |
| 20260831141245 | 76 | 275 | 6.0 | 13.0 | 0.00 | 0.00 | 0.00 | 58 | 1022.0 |
| 20260831140711 | 76 | 281 | 8.0 | 13.0 | 0.00 | 0.00 | 0.00 | 59 | 1022.0 |
| 20260831140219 | 76 | 264 | 6.0 | 13.0 | 0.00 | 0.00 | 0.00 | 58 | 1022.0 |
| 20260831135717 | 76 | 270 | 7.0 | 13.0 | 0.00 | 0.00 | 0.00 | 58 | 1022.0 |
| 20260831135213 | 76 | 268 | 8.0 | 14.0 | 0.00 | 0.00 | 0.00 | 58 | 1022.0 |
| 20260831134711 | 76 | 288 | 7.0 | 14.0 | 0.00 | 0.00 | 0.00 | 59 | 1022.0 |
| 20260831133718 | 76 | 250 | 6.0 | 13.0 | 0.00 | 0.00 | 0.00 | 60 | 1022.0 |
| 20260831133209 | 75 | 264 | 4.0 | 13.0 | 0.00 | 0.00 | 0.00 | 61 | 1022.0 |
| 20260831132719 | 75 | 268 | 4.0 | 13.0 | 0.00 | 0.00 | 0.00 | 62 | 1022.0 |
| 20260831132207 | 75 | 270 | 6.0 | 13.0 | 0.00 | 0.00 | 0.00 | 62 | 1022.1 |
| 20260831131718 | 74 | 277 | 5.0 | 14.0 | 0.00 | 0.00 | 0.00 | 63 | 1022.0 |
| 20260831131214 | 74 | 229 | 5.0 | 14.0 | 0.00 | 0.00 | 0.00 | 63 | 1022.1 |
| 20260831130709 | 74 | 279 | 6.0 | 15.0 | 0.00 | 0.00 | 0.00 | 63 | 1022.1 |
| 20260831130213 | 74 | 289 | 9.0 | 18.0 | 0.00 | 0.00 | 0.00 | 63 | 1022.1 |
| 20260831124706 | 75 | 255 | 7.0 | 15.0 | 0.00 | 0.00 | 0.00 | 63 | 1022.0 |
| 20260831124220 | 75 | 244 | 6.0 | 15.0 | 0.00 | 0.00 | 0.00 | 62 | 1022.0 |
| 20260831123712 | 75 | 274 | 5.0 | 15.0 | 0.00 | 0.00 | 0.00 | 62 | 1022.1 |
| 20260831123217 | 75 | 278 | 6.0 | 15.0 | 0.00 | 0.00 | 0.00 | 63 | 1022.0 |
| 20260831122219 | 75 | 277 | 5.0 | 15.0 | 0.00 | 0.00 | 0.00 | 61 | 1021.9 |
| 20260831121707 | 76 | 264 | 6.0 | 15.0 | 0.00 | 0.00 | 0.00 | 61 | 1022.0 |
| 20260831121224 | 75 | 248 | 4.0 | 16.0 | 0.00 | 0.00 | 0.00 | 62 | 1022.1 |
| 20260831120716 | 75 | 244 | 6.0 | 16.0 | 0.00 | 0.00 | 0.00 | 62 | 1022.0 |
| 20260831120214 | 75 | 241 | 6.0 | 16.0 | 0.00 | 0.00 | 0.00 | 62 | 1022.1 |
| 20260831115718 | 75 | 247 | 8.0 | 15.0 | 0.00 | 0.00 | 0.00 | 62 | 1022.1 |
| 20260831115225 | 75 | 262 | 8.0 | 13.0 | 0.00 | 0.00 | 0.00 | 62 | 1022.1 |
| 20260831114205 | 75 | 258 | 4.0 | 15.0 | 0.00 | 0.00 | 0.00 | 60 | 1022.1 |
| 20260831113714 | 75 | 240 | 7.0 | 15.0 | 0.00 | 0.00 | 0.00 | 60 | 1022.2 |
| 20260831113212 | 74 | 255 | 6.0 | 17.0 | 0.00 | 0.00 | 0.00 | 60 | 1022.2 |
| 20260831112216 | 74 | 250 | 8.0 | 17.0 | 0.00 | 0.00 | 0.00 | 61 | 1022.3 |
| 20260831111704 | 74 | 300 | 7.0 | 14.0 | 0.00 | 0.00 | 0.00 | 63 | 1022.3 |
| 20260831111205 | 74 | 277 | 6.0 | 17.0 | 0.00 | 0.00 | 0.00 | 62 | 1022.3 |
| 20260831110718 | 74 | 251 | 5.0 | 17.0 | 0.00 | 0.00 | 0.00 | 63 | 1022.4 |
| 20260831110214 | 74 | 286 | 8.0 | 17.0 | 0.00 | 0.00 | 0.00 | 64 | 1022.3 |
| 20260831105718 | 73 | 267 | 7.0 | 13.0 | 0.00 | 0.00 | 0.00 | 65 | 1022.4 |
| 20260831105215 | 73 | 288 | 4.0 | 13.0 | 0.00 | 0.00 | 0.00 | 65 | 1022.4 |
| 20260831104710 | 73 | 293 | 7.0 | 13.0 | 0.00 | 0.00 | 0.00 | 67 | 1022.3 |
| 20260831104208 | 72 | 278 | 6.0 | 13.0 | 0.00 | 0.00 | 0.00 | 67 | 1022.4 |
| 20260831103713 | 72 | 262 | 5.0 | 13.0 | 0.00 | 0.00 | 0.00 | 67 | 1022.5 |
| 20260831102708 | 72 | 268 | 4.0 | 13.0 | 0.00 | 0.00 | 0.00 | 67 | 1022.4 |
| 20260831101714 | 72 | 1 | 4.0 | 17.0 | 0.00 | 0.00 | 0.00 | 70 | 1022.4 |
| 20260831100707 | 72 | 267 | 7.0 | 13.0 | 0.00 | 0.00 | 0.00 | 69 | 1022.4 |
| 20260831100214 | 72 | 274 | 7.0 | 13.0 | 0.00 | 0.00 | 0.00 | 69 | 1022.4 |
| 20260831094712 | 73 | 251 | 6.0 | 11.0 | 0.00 | 0.00 | 0.00 | 68 | 1022.3 |
| 20260831093706 | 72 | 272 | 5.0 | 9.0 | 0.00 | 0.00 | 0.00 | 68 | 1022.2 |
| 20260831093211 | 72 | 278 | 4.0 | 11.0 | 0.00 | 0.00 | 0.00 | 69 | 1022.3 |
| 20260831092706 | 72 | 323 | 4.0 | 14.0 | 0.00 | 0.00 | 0.00 | 70 | 1022.2 |
| 20260831092211 | 72 | 315 | 4.0 | 14.0 | 0.00 | 0.00 | 0.00 | 69 | 1022.3 |
| 20260831091715 | 72 | 282 | 5.0 | 14.0 | 0.00 | 0.00 | 0.00 | 69 | 1022.2 |
| 20260831090715 | 72 | 274 | 6.0 | 9.0 | 0.00 | 0.00 | 0.00 | 70 | 1022.2 |
| 20260831090208 | 72 | 285 | 4.0 | 10.0 | 0.00 | 0.00 | 0.00 | 71 | 1022.1 |
| 20260831085709 | 71 | 257 | 4.0 | 12.0 | 0.00 | 0.00 | 0.00 | 71 | 1022.1 |
| 20260831085212 | 71 | 322 | 6.0 | 12.0 | 0.00 | 0.00 | 0.00 | 72 | 1022.0 |
| 20260831084710 | 71 | 272 | 4.0 | 12.0 | 0.00 | 0.00 | 0.00 | 72 | 1021.9 |
| 20260831084206 | 71 | 275 | 6.0 | 12.0 | 0.00 | 0.00 | 0.00 | 73 | 1022.0 |
| 20260831083713 | 70 | 0 | 5.0 | 12.0 | 0.00 | 0.00 | 0.00 | 73 | 1021.9 |
| 20260831083205 | 70 | 282 | 5.0 | 15.0 | 0.00 | 0.00 | 0.00 | 73 | 1021.9 |
| 20260831082709 | 70 | 295 | 6.0 | 15.0 | 0.00 | 0.00 | 0.00 | 73 | 1021.8 |
| 20260831082210 | 70 | 292 | 5.0 | 15.0 | 0.00 | 0.00 | 0.00 | 74 | 1021.9 |
| 20260831081219 | 70 | 248 | 6.0 | 15.0 | 0.00 | 0.00 | 0.00 | 74 | 1021.8 |
| 20260831080720 | 70 | 265 | 6.0 | 15.0 | 0.00 | 0.00 | 0.00 | 73 | 1021.8 |
| 20260831080207 | 70 | 258 | 4.0 | 15.0 | 0.00 | 0.00 | 0.00 | 73 | 1021.8 |
| 20260831075705 | 70 | 278 | 8.0 | 15.0 | 0.00 | 0.00 | 0.00 | 74 | 1021.6 |
| 20260831075218 | 70 | 262 | 8.0 | 13.0 | 0.00 | 0.00 | 0.00 | 73 | 1021.6 |
| 20260831074705 | 70 | 284 | 6.0 | 12.0 | 0.00 | 0.00 | 0.00 | 73 | 1021.5 |
| 20260831073209 | 70 | 248 | 5.0 | 11.0 | 0.00 | 0.00 | 0.00 | 74 | 1021.4 |
| 20260831072709 | 70 | 270 | 4.0 | 14.0 | 0.00 | 0.00 | 0.00 | 73 | 1021.4 |
| 20260831072211 | 70 | 306 | 5.0 | 14.0 | 0.00 | 0.00 | 0.00 | 74 | 1021.4 |
| 20260831071709 | 70 | 270 | 6.0 | 14.0 | 0.00 | 0.00 | 0.00 | 74 | 1021.4 |
| 20260831070710 | 70 | 222 | 6.0 | 13.0 | 0.00 | 0.00 | 0.00 | 73 | 1021.3 |
| 20260831070205 | 70 | 264 | 6.0 | 12.0 | 0.00 | 0.00 | 0.00 | 74 | 1021.3 |
| 20260831065715 | 70 | 275 | 6.0 | 14.0 | 0.00 | 0.00 | 0.00 | 73 | 1021.1 |
| 20260831065218 | 70 | 278 | 5.0 | 14.0 | 0.00 | 0.00 | 0.00 | 73 | 1021.2 |
| 20260831064718 | 70 | 274 | 4.0 | 14.0 | 0.00 | 0.00 | 0.00 | 73 | 1021.2 |
| 20260831064210 | 70 | 289 | 5.0 | 12.0 | 0.00 | 0.00 | 0.00 | 73 | 1021.2 |
| 20260831063705 | 70 | 279 | 5.0 | 12.0 | 0.00 | 0.00 | 0.00 | 73 | 1021.1 |